Content
SEND FEEDBACK

Daily
Averages
Monthly
Summary
United States of America

BENTON, ARKANSAS


Home > North America > United States > Arkansas
Elevation: 285 feet     Latitude: 34 33N     Longitude: 092 37W

WEATHER
 
SELECT A DAY
Number of Records: 192,723;   Date Range: 1/1/95 - 11/26/14
 
SHARE

PRINT THIS DATA

[ ← Previous Day ]
WEATHER ALMANAC - FEBRUARY 13, 2013
[ Next Day → ]
[ °C ]   °F
Weather ElementAverageHighLow
Temperature44 °F53.1 °F (3:53 pm)39 °F (4:53 am)
Dewpoint36.7 °F41 °F (12:53 am)34 °F (4:53 pm)
Humidity76.9 %96 % (12:53 am)48 % (4:53 pm)
Barometer30.00 in30.08 in (10:53 am)29.89 in (12:53 am)
Wind Speed7.9 mph12.7 mph (9:19 am)
Weather ElementAverage
Visibility9.8 mi
Wind DirectionWNW (282.1 °)

Weather ElementTotal
Precipitation0.02 in
Heating Degree Days19 (Base 65)
Averaged from 28 records on February 13, 2013
WEATHER CONDITIONS BREAKOUT
WIND DIRECTION BREAKOUT
WEATHER BY HOUR - FEBRUARY 13, 2013
[ °C ]   °F
Local TimeTemperatureDewpointHumidityBarometerVisibilityWind DirectionWind SpeedGust SpeedPrecipitationEventsConditions
12:53 AM42.1 °F41.0 °F96 %29.89 in6.0 miNNW (330°)8.1 mph0.02 inRainLight Rain
1:53 AM41.0 °F37.9 °F89 %29.91 in7.0 miNNW (340°)11.5 mph0.00 inRainLight Rain
2:53 AM39.9 °F37.9 °F93 %29.92 in10.0 miNW (320°)9.2 mph0.00 inOvercast
3:14 AM39.2 °F37.4 °F93 %29.91 in10.0 miNNW (330°)10.4 mphOvercast
3:53 AM39.9 °F37.0 °F89 %29.93 in10.0 miNNW (330°)10.4 mphOvercast
4:53 AM39.0 °F37.0 °F93 %29.95 in10.0 miNW (320°)8.1 mph0.00 inOvercast
5:53 AM39.0 °F37.0 °F93 %29.96 in10.0 miNW (320°)5.8 mph0.00 inOvercast
6:53 AM39.9 °F37.0 °F89 %29.99 in10.0 miWNW (300°)8.1 mph0.00 inOvercast
7:38 AM39.2 °F37.4 °F93 %30.00 in10.0 miWNW (300°)6.9 mphOvercast
7:53 AM41.0 °F37.0 °F86 %30.02 in10.0 miWNW (300°)9.2 mphOvercast
8:53 AM42.1 °F37.9 °F85 %30.04 in10.0 miNNW (330°)9.2 mphOvercast
9:19 AM42.8 °F37.4 °F81 %30.05 in10.0 miNW (310°)12.7 mphOvercast
9:53 AM43.0 °F37.0 °F80 %30.07 in10.0 miNW (310°)11.5 mphOvercast
10:53 AM45.0 °F37.0 °F74 %30.08 in10.0 miNW (310°)9.2 mphOvercast
11:53 AM46.0 °F37.0 °F71 %30.06 in10.0 miNW (310°)8.1 mphOvercast
12:53 PM46.9 °F37.0 °F68 %30.04 in10.0 miNW (310°)12.7 mphOvercast
1:53 PM50.0 °F36.0 °F59 %30.02 in10.0 miNW (310°)9.2 mphOvercast
2:42 PM51.8 °F35.6 °F54 %29.99 in10.0 miWNW (290°)5.8 mphScattered Clouds
2:53 PM51.1 °F36.0 °F56 %30.00 in10.0 miWest (280°)6.9 mphScattered Clouds
3:53 PM53.1 °F35.1 °F50 %29.99 in10.0 miWNW (300°)6.9 mphPartly Cloudy
4:53 PM53.1 °F34.0 °F48 %29.99 in10.0 miNW (310°)5.8 mphPartly Cloudy
5:53 PM48.9 °F35.1 °F59 %30.00 in10.0 miSW (230°)4.6 mphClear
6:53 PM48.0 °F36.0 °F63 %30.01 in10.0 miCalmClear
7:53 PM45.0 °F36.0 °F71 %30.02 in10.0 miSSW (210°)4.6 mphClear
8:53 PM43.0 °F36.0 °F76 %30.03 in10.0 miSSW (210°)4.6 mphClear
9:53 PM41.0 °F35.1 °F79 %30.04 in10.0 miSW (230°)6.9 mphClear
10:53 PM41.0 °F36.0 °F82 %30.04 in10.0 miSW (230°)5.8 mphClear
11:53 PM41.0 °F36.0 °F82 %30.04 in10.0 miSW (230°)9.2 mphClear
Hourly data recorded from KLIT, located miles away from Benton, Arkansas







STORIES FROM OUR PARTNERS